Location: G�nzburg
(48.4565°N, 10.3217°E)
Time: 02:52:34
(UTC+01:00)

ISS - Pass Details

Date: 18 November 2017
Orbit: 401 x 407 km, 51.6° (Epoch: 25 November)

Event Time Altitude Azimuth Distance (km) Brightness Sun altitude
Exits shadow 05:31:30 12° 190° (S) 1,315 -1.3 -19.6°
Drops below altitude 10° 05:32:03 10° 182° (S) 1,447 -1.0 -19.5°
Sets 05:34:39 0° 160° (SSE) 2,301 0.4 -19.1°
